Year,Month,Day,Hour,Minute,Value (Times are PST for windgust in km/hr)
2006,02,04,00,00,8.10
2006,02,04,00,01,20.90
2006,02,04,00,02,17.70
2006,02,04,00,03,16.10
2006,02,04,00,04,16.10
2006,02,04,00,05,11.30
2006,02,04,00,06,8.10
2006,02,04,00,07,16.10
2006,02,04,00,08,19.30
2006,02,04,00,09,12.90
2006,02,04,00,10,14.50
2006,02,04,00,11,9.60
2006,02,04,00,12,24.20
2006,02,04,00,13,16.10
2006,02,04,00,14,14.50
2006,02,04,00,15,19.30
2006,02,04,00,16,22.50
2006,02,04,00,17,14.50
2006,02,04,00,18,14.50
2006,02,04,00,19,11.30
2006,02,04,00,20,9.60
2006,02,04,00,21,8.10
2006,02,04,00,22,9.60
2006,02,04,00,23,8.10
2006,02,04,00,24,14.50
2006,02,04,00,25,17.70
2006,02,04,00,26,11.30
2006,02,04,00,27,9.60
2006,02,04,00,28,9.60
2006,02,04,00,29,11.30
2006,02,04,00,30,3.20
2006,02,04,00,31,3.20
2006,02,04,00,32,17.70
2006,02,04,00,33,16.10
2006,02,04,00,34,20.90
2006,02,04,00,35,19.30
2006,02,04,00,36,16.10
2006,02,04,00,37,24.20
2006,02,04,00,38,17.70
2006,02,04,00,39,22.50
2006,02,04,00,40,19.30
2006,02,04,00,41,20.90
2006,02,04,00,42,24.20
2006,02,04,00,43,12.90
2006,02,04,00,44,16.10
2006,02,04,00,45,16.10
2006,02,04,00,46,19.30
2006,02,04,00,47,19.30
2006,02,04,00,48,17.70
2006,02,04,00,49,19.30
2006,02,04,00,50,11.30
2006,02,04,00,51,11.30
2006,02,04,00,52,14.50
2006,02,04,00,53,9.60
2006,02,04,00,54,9.60
2006,02,04,00,55,16.10
2006,02,04,00,56,16.10
2006,02,04,00,57,6.40
2006,02,04,00,58,6.40
2006,02,04,00,59,8.10
2006,02,04,01,00,8.10
2006,02,04,01,01,8.10
2006,02,04,01,02,12.90
2006,02,04,01,03,9.60
2006,02,04,01,04,8.10
2006,02,04,01,05,8.10
2006,02,04,01,06,6.40
2006,02,04,01,07,9.60
2006,02,04,01,08,6.40
2006,02,04,01,09,11.30
2006,02,04,01,10,8.10
2006,02,04,01,11,11.30
2006,02,04,01,12,9.60
2006,02,04,01,13,9.60
2006,02,04,01,14,6.40
2006,02,04,01,15,3.20
2006,02,04,01,16,4.80
2006,02,04,01,17,6.40
2006,02,04,01,18,8.10
2006,02,04,01,19,8.10
2006,02,04,01,20,8.10
2006,02,04,01,21,11.30
2006,02,04,01,22,8.10
2006,02,04,01,23,3.20
2006,02,04,01,24,8.10
2006,02,04,01,25,4.80
2006,02,04,01,26,3.20
2006,02,04,01,27,4.80
2006,02,04,01,28,4.80
2006,02,04,01,29,4.80
2006,02,04,01,30,6.40
2006,02,04,01,31,11.30
2006,02,04,01,32,6.40
2006,02,04,01,33,4.80
2006,02,04,01,34,4.80
2006,02,04,01,35,6.40
2006,02,04,01,36,8.10
2006,02,04,01,37,4.80
2006,02,04,01,38,4.80
2006,02,04,01,39,6.40
2006,02,04,01,40,6.40
2006,02,04,01,41,9.60
2006,02,04,01,42,8.10
2006,02,04,01,43,8.10
2006,02,04,01,44,8.10
2006,02,04,01,45,8.10
2006,02,04,01,46,4.80
2006,02,04,01,47,8.10
2006,02,04,01,48,6.40
2006,02,04,01,49,6.40
2006,02,04,01,50,3.20
2006,02,04,01,51,0.00
2006,02,04,01,52,1.60
2006,02,04,01,53,1.60
2006,02,04,01,54,3.20
2006,02,04,01,55,3.20
2006,02,04,01,56,3.20
2006,02,04,01,57,3.20
2006,02,04,01,58,3.20
2006,02,04,01,59,1.60
2006,02,04,02,00,1.60
2006,02,04,02,01,3.20
2006,02,04,02,02,3.20
2006,02,04,02,03,3.20
2006,02,04,02,04,3.20
2006,02,04,02,05,4.80
2006,02,04,02,06,3.20
2006,02,04,02,07,4.80
2006,02,04,02,08,4.80
2006,02,04,02,09,4.80
2006,02,04,02,10,4.80
2006,02,04,02,11,3.20
2006,02,04,02,12,3.20
2006,02,04,02,13,3.20
2006,02,04,02,14,3.20
2006,02,04,02,15,1.60
2006,02,04,02,16,3.20
2006,02,04,02,17,1.60
2006,02,04,02,18,0.00
2006,02,04,02,19,0.00
2006,02,04,02,20,0.00
2006,02,04,02,21,0.00
2006,02,04,02,22,0.00
2006,02,04,02,23,0.00
2006,02,04,02,24,0.00
2006,02,04,02,25,0.00
2006,02,04,02,26,1.60
2006,02,04,02,27,0.00
2006,02,04,02,28,0.00
2006,02,04,02,29,0.00
2006,02,04,02,30,3.20
2006,02,04,02,31,3.20
2006,02,04,02,32,3.20
2006,02,04,02,33,1.60
2006,02,04,02,34,3.20
2006,02,04,02,35,4.80
2006,02,04,02,36,4.80
2006,02,04,02,37,3.20
2006,02,04,02,38,3.20
2006,02,04,02,39,1.60
2006,02,04,02,40,1.60
2006,02,04,02,41,1.60
2006,02,04,02,42,6.40
2006,02,04,02,43,4.80
2006,02,04,02,44,4.80
2006,02,04,02,45,3.20
2006,02,04,02,46,3.20
2006,02,04,02,47,1.60
2006,02,04,02,48,3.20
2006,02,04,02,49,3.20
2006,02,04,02,50,1.60
2006,02,04,02,51,1.60
2006,02,04,02,52,0.00
2006,02,04,02,53,3.20
2006,02,04,02,54,3.20
2006,02,04,02,55,3.20
2006,02,04,02,56,3.20
2006,02,04,02,57,3.20
2006,02,04,02,58,1.60
2006,02,04,02,59,3.20
2006,02,04,03,00,1.60
2006,02,04,03,01,0.00
2006,02,04,03,02,0.00
2006,02,04,03,03,1.60
2006,02,04,03,04,1.60
2006,02,04,03,05,3.20
2006,02,04,03,06,3.20
2006,02,04,03,07,3.20
2006,02,04,03,08,4.80
2006,02,04,03,09,8.10
2006,02,04,03,10,17.70
2006,02,04,03,11,16.10
2006,02,04,03,12,27.40
2006,02,04,03,13,25.70
2006,02,04,03,14,25.70
2006,02,04,03,15,17.70
2006,02,04,03,16,20.90
2006,02,04,03,17,22.50
2006,02,04,03,18,24.20
2006,02,04,03,19,25.70
2006,02,04,03,20,22.50
2006,02,04,03,21,29.00
2006,02,04,03,22,29.00
2006,02,04,03,23,19.30
2006,02,04,03,24,35.40
2006,02,04,03,25,30.60
2006,02,04,03,26,29.00
2006,02,04,03,27,20.90
2006,02,04,03,28,27.40
2006,02,04,03,29,24.20
2006,02,04,03,30,25.70
2006,02,04,03,31,17.70
2006,02,04,03,32,17.70
2006,02,04,03,33,19.30
2006,02,04,03,34,20.90
2006,02,04,03,35,20.90
2006,02,04,03,36,24.20
2006,02,04,03,37,11.30
2006,02,04,03,38,22.50
2006,02,04,03,39,14.50
2006,02,04,03,40,20.90
2006,02,04,03,41,27.40
2006,02,04,03,42,24.20
2006,02,04,03,43,8.10
2006,02,04,03,44,6.40
2006,02,04,03,45,17.70
2006,02,04,03,46,11.30
2006,02,04,03,47,17.70
2006,02,04,03,48,22.50
2006,02,04,03,49,27.40
2006,02,04,03,50,25.70
2006,02,04,03,51,25.70
2006,02,04,03,52,32.20
2006,02,04,03,53,20.90
2006,02,04,03,54,30.60
2006,02,04,03,55,22.50
2006,02,04,03,56,24.20
2006,02,04,03,57,27.40
2006,02,04,03,58,20.90
2006,02,04,03,59,22.50
2006,02,04,04,00,20.90
2006,02,04,04,01,24.20
2006,02,04,04,02,37.00
2006,02,04,04,03,25.70
2006,02,04,04,04,27.40
2006,02,04,04,05,19.30
2006,02,04,04,06,25.70
2006,02,04,04,07,33.80
2006,02,04,04,08,37.00
2006,02,04,04,09,27.40
2006,02,04,04,10,27.40
2006,02,04,04,11,27.40
2006,02,04,04,12,35.40
2006,02,04,04,13,29.00
2006,02,04,04,14,32.20
2006,02,04,04,15,29.00
2006,02,04,04,16,20.90
2006,02,04,04,17,30.60
2006,02,04,04,18,25.70
2006,02,04,04,19,35.40
2006,02,04,04,20,25.70
2006,02,04,04,21,16.10
2006,02,04,04,22,24.20
2006,02,04,04,23,22.50
2006,02,04,04,24,27.40
2006,02,04,04,25,19.30
2006,02,04,04,26,24.20
2006,02,04,04,27,24.20
2006,02,04,04,28,20.90
2006,02,04,04,29,20.90
2006,02,04,04,30,19.30
2006,02,04,04,31,24.20
2006,02,04,04,32,22.50
2006,02,04,04,33,25.70
2006,02,04,04,34,24.20
2006,02,04,04,35,24.20
2006,02,04,04,36,25.70
2006,02,04,04,37,25.70
2006,02,04,04,38,27.40
2006,02,04,04,39,19.30
2006,02,04,04,40,37.00
2006,02,04,04,41,16.10
2006,02,04,04,42,19.30
2006,02,04,04,43,24.20
2006,02,04,04,44,12.90
2006,02,04,04,45,22.50
2006,02,04,04,46,20.90
2006,02,04,04,47,17.70
2006,02,04,04,48,19.30
2006,02,04,04,49,16.10
2006,02,04,04,50,20.90
2006,02,04,04,51,16.10
2006,02,04,04,52,19.30
2006,02,04,04,53,16.10
2006,02,04,04,54,20.90
2006,02,04,04,55,16.10
2006,02,04,04,56,19.30
2006,02,04,04,57,22.50
2006,02,04,04,58,16.10
2006,02,04,04,59,22.50
2006,02,04,05,00,24.20
2006,02,04,05,01,24.20
2006,02,04,05,02,29.00
2006,02,04,05,03,29.00
2006,02,04,05,04,33.80
2006,02,04,05,05,25.70
2006,02,04,05,06,30.60
2006,02,04,05,07,29.00
2006,02,04,05,08,37.00
2006,02,04,05,09,19.30
2006,02,04,05,10,17.70
2006,02,04,05,11,27.40
2006,02,04,05,12,25.70
2006,02,04,05,13,29.00
2006,02,04,05,14,29.00
2006,02,04,05,15,43.50
2006,02,04,05,16,32.20
2006,02,04,05,17,24.20
2006,02,04,05,18,25.70
2006,02,04,05,19,27.40
2006,02,04,05,20,27.40
2006,02,04,05,21,30.60
2006,02,04,05,22,25.70
2006,02,04,05,23,14.50
2006,02,04,05,24,29.00
2006,02,04,05,25,20.90
2006,02,04,05,26,29.00
2006,02,04,05,27,29.00
2006,02,04,05,28,27.40
2006,02,04,05,29,25.70
2006,02,04,05,30,20.90
2006,02,04,05,31,22.50
2006,02,04,05,32,25.70
2006,02,04,05,33,20.90
2006,02,04,05,34,25.70
2006,02,04,05,35,19.30
2006,02,04,05,36,17.70
2006,02,04,05,37,14.50
2006,02,04,05,38,25.70
2006,02,04,05,39,19.30
2006,02,04,05,40,27.40
2006,02,04,05,41,30.60
2006,02,04,05,42,32.20
2006,02,04,05,43,25.70
2006,02,04,05,44,27.40
2006,02,04,05,45,25.70
2006,02,04,05,46,32.20
2006,02,04,05,47,17.70
2006,02,04,05,48,17.70
2006,02,04,05,49,25.70
2006,02,04,05,50,27.40
2006,02,04,05,51,27.40
2006,02,04,05,52,16.10
2006,02,04,05,53,32.20
2006,02,04,05,54,30.60
2006,02,04,05,55,30.60
2006,02,04,05,56,37.00
2006,02,04,05,57,22.50
2006,02,04,05,58,20.90
2006,02,04,05,59,35.40
2006,02,04,06,00,19.30
2006,02,04,06,01,22.50
2006,02,04,06,02,22.50
2006,02,04,06,03,24.20
2006,02,04,06,04,32.20
2006,02,04,06,05,24.20
2006,02,04,06,06,35.40
2006,02,04,06,07,20.90
2006,02,04,06,08,11.30
2006,02,04,06,09,27.40
2006,02,04,06,10,20.90
2006,02,04,06,11,24.20
2006,02,04,06,12,22.50
2006,02,04,06,13,17.70
2006,02,04,06,14,19.30
2006,02,04,06,15,17.70
2006,02,04,06,16,27.40
2006,02,04,06,17,24.20
2006,02,04,06,18,24.20
2006,02,04,06,19,17.70
2006,02,04,06,20,19.30
2006,02,04,06,21,27.40
2006,02,04,06,22,25.70
2006,02,04,06,23,22.50
2006,02,04,06,24,24.20
2006,02,04,06,25,20.90
2006,02,04,06,26,25.70
2006,02,04,06,27,38.60
2006,02,04,06,28,27.40
2006,02,04,06,29,37.00
2006,02,04,06,30,27.40
2006,02,04,06,31,29.00
2006,02,04,06,32,35.40
2006,02,04,06,33,32.20
2006,02,04,06,34,38.60
2006,02,04,06,35,27.40
2006,02,04,06,36,25.70
2006,02,04,06,37,33.80
2006,02,04,06,38,32.20
2006,02,04,06,39,32.20
2006,02,04,06,40,27.40
2006,02,04,06,41,30.60
2006,02,04,06,42,43.50
2006,02,04,06,43,30.60
2006,02,04,06,44,33.80
2006,02,04,06,45,27.40
2006,02,04,06,46,33.80
2006,02,04,06,47,29.00
2006,02,04,06,48,27.40
2006,02,04,06,49,32.20
2006,02,04,06,50,22.50
2006,02,04,06,51,35.40
2006,02,04,06,52,30.60
2006,02,04,06,53,30.60
2006,02,04,06,54,29.00
2006,02,04,06,55,32.20
2006,02,04,06,56,24.20
2006,02,04,06,57,30.60
2006,02,04,06,58,27.40
2006,02,04,06,59,27.40
2006,02,04,07,00,20.90
2006,02,04,07,01,29.00
2006,02,04,07,02,16.10
2006,02,04,07,03,22.50
2006,02,04,07,04,37.00
2006,02,04,07,05,33.80
2006,02,04,07,06,19.30
2006,02,04,07,07,32.20
2006,02,04,07,08,37.00
2006,02,04,07,09,48.30
2006,02,04,07,10,38.60
2006,02,04,07,11,27.40
2006,02,04,07,12,35.40
2006,02,04,07,13,37.00
2006,02,04,07,14,41.80
2006,02,04,07,15,37.00
2006,02,04,07,16,30.60
2006,02,04,07,17,38.60
2006,02,04,07,18,37.00
2006,02,04,07,19,32.20
2006,02,04,07,20,29.00
2006,02,04,07,21,25.70
2006,02,04,07,22,40.20
2006,02,04,07,23,24.20
2006,02,04,07,24,30.60
2006,02,04,07,25,37.00
2006,02,04,07,26,33.80
2006,02,04,07,27,20.90
2006,02,04,07,28,33.80
2006,02,04,07,29,30.60
2006,02,04,07,30,33.80
2006,02,04,07,31,24.20
2006,02,04,07,32,35.40
2006,02,04,07,33,29.00
2006,02,04,07,34,29.00
2006,02,04,07,35,41.80
2006,02,04,07,36,37.00
2006,02,04,07,37,37.00
2006,02,04,07,38,43.50
2006,02,04,07,39,33.80
2006,02,04,07,40,35.40
2006,02,04,07,41,32.20
2006,02,04,07,42,29.00
2006,02,04,07,43,29.00
2006,02,04,07,44,29.00
2006,02,04,07,45,37.00
2006,02,04,07,46,27.40
2006,02,04,07,47,29.00
2006,02,04,07,48,33.80
2006,02,04,07,49,24.20
2006,02,04,07,50,32.20
2006,02,04,07,51,35.40
2006,02,04,07,52,22.50
2006,02,04,07,53,33.80
2006,02,04,07,54,33.80
2006,02,04,07,55,35.40
2006,02,04,07,56,32.20
2006,02,04,07,57,27.40
2006,02,04,07,58,27.40
2006,02,04,07,59,25.70
2006,02,04,08,00,24.20
2006,02,04,08,01,25.70
2006,02,04,08,02,20.90
2006,02,04,08,03,20.90
2006,02,04,08,04,24.20
2006,02,04,08,05,24.20
2006,02,04,08,06,25.70
2006,02,04,08,07,33.80
2006,02,04,08,08,25.70
2006,02,04,08,09,29.00
2006,02,04,08,10,30.60
2006,02,04,08,11,22.50
2006,02,04,08,12,30.60
2006,02,04,08,13,32.20
2006,02,04,08,14,25.70
2006,02,04,08,15,27.40
2006,02,04,08,16,25.70
2006,02,04,08,17,30.60
2006,02,04,08,18,22.50
2006,02,04,08,19,33.80
2006,02,04,08,20,32.20
2006,02,04,08,21,27.40
2006,02,04,08,22,20.90
2006,02,04,08,23,27.40
2006,02,04,08,24,33.80
2006,02,04,08,25,38.60
2006,02,04,08,26,30.60
2006,02,04,08,27,35.40
2006,02,04,08,28,29.00
2006,02,04,08,29,20.90
2006,02,04,08,30,25.70
2006,02,04,08,31,27.40
2006,02,04,08,32,25.70
2006,02,04,08,33,29.00
2006,02,04,08,34,22.50
2006,02,04,08,35,24.20
2006,02,04,08,36,19.30
2006,02,04,08,37,27.40
2006,02,04,08,38,20.90
2006,02,04,08,39,27.40
2006,02,04,08,40,20.90
2006,02,04,08,41,33.80
2006,02,04,08,42,30.60
2006,02,04,08,43,32.20
2006,02,04,08,44,19.30
2006,02,04,08,45,30.60
2006,02,04,08,46,29.00
2006,02,04,08,47,30.60
2006,02,04,08,48,27.40
2006,02,04,08,49,24.20
2006,02,04,08,50,24.20
2006,02,04,08,51,25.70
2006,02,04,08,52,40.20
2006,02,04,08,53,49.90
2006,02,04,08,54,38.60
2006,02,04,08,55,49.90
2006,02,04,08,56,49.90
2006,02,04,08,57,48.30
2006,02,04,08,58,35.40
2006,02,04,08,59,38.60
2006,02,04,09,00,46.70
2006,02,04,09,01,45.10
2006,02,04,09,02,37.00
2006,02,04,09,03,41.80
2006,02,04,09,04,40.20
2006,02,04,09,05,37.00
2006,02,04,09,06,33.80
2006,02,04,09,07,41.80
2006,02,04,09,08,29.00
2006,02,04,09,09,30.60
2006,02,04,09,10,45.10
2006,02,04,09,11,38.60
2006,02,04,09,12,48.30
2006,02,04,09,13,35.40
2006,02,04,09,14,30.60
2006,02,04,09,15,37.00
2006,02,04,09,16,33.80
2006,02,04,09,17,29.00
2006,02,04,09,18,35.40
2006,02,04,09,19,27.40
2006,02,04,09,20,32.20
2006,02,04,09,21,22.50
2006,02,04,09,22,40.20
2006,02,04,09,23,32.20
2006,02,04,09,24,22.50
2006,02,04,09,25,32.20
2006,02,04,09,26,25.70
2006,02,04,09,27,38.60
2006,02,04,09,28,30.60
2006,02,04,09,29,20.90
2006,02,04,09,30,32.20
2006,02,04,09,31,38.60
2006,02,04,09,32,48.30
2006,02,04,09,33,48.30
2006,02,04,09,34,37.00
2006,02,04,09,35,37.00
2006,02,04,09,36,24.20
2006,02,04,09,37,38.60
2006,02,04,09,38,41.80
2006,02,04,09,39,48.30
2006,02,04,09,40,56.30
2006,02,04,09,41,51.50
2006,02,04,09,42,27.40
2006,02,04,09,43,38.60
2006,02,04,09,44,32.20
2006,02,04,09,45,46.70
2006,02,04,09,46,45.10
2006,02,04,09,47,32.20
2006,02,04,09,48,45.10
2006,02,04,09,49,41.80
2006,02,04,09,50,32.20
2006,02,04,09,51,22.50
2006,02,04,09,52,45.10
2006,02,04,09,53,29.00
2006,02,04,09,54,49.90
2006,02,04,09,55,51.50
2006,02,04,09,56,46.70
2006,02,04,09,57,40.20
2006,02,04,09,58,59.50
2006,02,04,09,59,41.80
2006,02,04,10,00,48.30
2006,02,04,10,01,48.30
2006,02,04,10,02,46.70
2006,02,04,10,03,59.50
2006,02,04,10,04,56.30
2006,02,04,10,05,43.50
2006,02,04,10,06,43.50
2006,02,04,10,07,48.30
2006,02,04,10,08,41.80
2006,02,04,10,09,24.20
2006,02,04,10,10,57.90
2006,02,04,10,11,51.50
2006,02,04,10,12,49.90
2006,02,04,10,13,49.90
2006,02,04,10,14,49.90
2006,02,04,10,15,49.90
2006,02,04,10,16,56.30
2006,02,04,10,17,53.10
2006,02,04,10,18,53.10
2006,02,04,10,19,59.50
2006,02,04,10,20,56.30
2006,02,04,10,21,66.00
2006,02,04,10,22,64.40
2006,02,04,10,23,62.70
2006,02,04,10,24,53.10
2006,02,04,10,25,45.10
2006,02,04,10,26,24.20
2006,02,04,10,27,24.20
2006,02,04,10,28,48.30
2006,02,04,10,29,59.50
2006,02,04,10,30,30.60
2006,02,04,10,31,37.00
2006,02,04,10,32,53.10
2006,02,04,10,33,57.90
2006,02,04,10,34,59.50
2006,02,04,10,35,45.10
2006,02,04,10,36,56.30
2006,02,04,10,37,51.50
2006,02,04,10,38,41.80
2006,02,04,10,39,66.00
2006,02,04,10,40,62.70
2006,02,04,10,41,17.70
2006,02,04,10,42,59.50
2006,02,04,10,43,59.50
2006,02,04,10,44,59.50
2006,02,04,10,45,51.50
2006,02,04,10,46,66.00
2006,02,04,10,47,62.70
2006,02,04,10,48,57.90
2006,02,04,10,49,57.90
2006,02,04,10,50,56.30
2006,02,04,10,51,57.90
2006,02,04,10,52,53.10
2006,02,04,10,53,48.30
2006,02,04,10,54,43.50
2006,02,04,10,55,45.10
2006,02,04,10,56,48.30
2006,02,04,10,57,20.90
2006,02,04,10,58,41.80
2006,02,04,10,59,48.30
2006,02,04,11,00,48.30
2006,02,04,11,01,43.50
2006,02,04,11,02,53.10
2006,02,04,11,03,54.70
2006,02,04,11,04,69.20
2006,02,04,11,05,69.20
2006,02,04,11,06,53.10
2006,02,04,11,07,48.30
2006,02,04,11,08,56.30
2006,02,04,11,09,48.30
2006,02,04,11,10,35.40
2006,02,04,11,11,48.30
2006,02,04,11,12,74.00
2006,02,04,11,13,57.90
2006,02,04,11,14,56.30
2006,02,04,11,15,49.90
2006,02,04,11,16,48.30
2006,02,04,11,17,48.30
2006,02,04,11,18,45.10
2006,02,04,11,19,48.30
2006,02,04,11,20,53.10
2006,02,04,11,21,48.30
2006,02,04,11,22,53.10
2006,02,04,11,23,43.50
2006,02,04,11,24,29.00
2006,02,04,11,25,38.60
2006,02,04,11,26,69.20
2006,02,04,11,27,66.00
2006,02,04,11,28,57.90
2006,02,04,11,29,57.90
2006,02,04,11,30,46.70
2006,02,04,11,31,53.10
2006,02,04,11,32,54.70
2006,02,04,11,33,56.30
2006,02,04,11,34,56.30
2006,02,04,11,35,46.70
2006,02,04,11,36,46.70
2006,02,04,11,37,54.70
2006,02,04,11,38,64.40
2006,02,04,11,39,64.40
2006,02,04,11,40,75.60
2006,02,04,11,41,53.10
2006,02,04,11,42,40.20
2006,02,04,11,43,51.50
2006,02,04,11,44,51.50
2006,02,04,11,45,51.50
2006,02,04,11,46,74.00
2006,02,04,11,47,54.70
2006,02,04,11,48,62.70
2006,02,04,11,49,46.70
2006,02,04,11,50,64.40
2006,02,04,11,51,61.20
2006,02,04,11,52,57.90
2006,02,04,11,53,53.10
2006,02,04,11,54,41.80
2006,02,04,11,55,61.20
2006,02,04,11,56,35.40
2006,02,04,11,57,61.20
2006,02,04,11,58,67.60
2006,02,04,11,59,56.30
2006,02,04,12,00,57.90
2006,02,04,12,01,64.40
2006,02,04,12,02,48.30
2006,02,04,12,03,66.00
2006,02,04,12,04,45.10
2006,02,04,12,05,69.20
2006,02,04,12,06,45.10
2006,02,04,12,07,61.20
2006,02,04,12,08,49.90
2006,02,04,12,09,61.20
2006,02,04,12,10,64.40
2006,02,04,12,11,56.30
2006,02,04,14,16,74.00
2006,02,04,14,17,64.40
2006,02,04,14,18,53.10
2006,02,04,14,19,46.70
2006,02,04,14,20,48.30
2006,02,04,14,21,57.90
2006,02,04,14,22,54.70
2006,02,04,14,23,56.30
2006,02,04,14,24,53.10
2006,02,04,14,25,48.30
2006,02,04,14,26,53.10
2006,02,04,14,27,59.50
2006,02,04,14,28,54.70
2006,02,04,14,29,56.30
2006,02,04,14,30,90.10
2006,02,04,14,31,62.70
2006,02,04,14,32,59.50
2006,02,04,14,33,53.10
2006,02,04,14,34,48.30
2006,02,04,14,35,49.90
2006,02,04,14,36,57.90
2006,02,04,14,37,62.70
2006,02,04,14,38,54.70
2006,02,04,14,39,64.40
2006,02,04,14,40,67.60
2006,02,04,14,41,82.10
2006,02,04,14,42,56.30
2006,02,04,14,43,72.40
2006,02,04,14,44,59.50
2006,02,04,14,45,74.00
2006,02,04,14,46,53.10
2006,02,04,14,47,70.80
2006,02,04,14,48,75.60
2006,02,04,14,49,75.60
2006,02,04,14,50,56.30
2006,02,04,14,51,48.30
2006,02,04,14,52,69.20
2006,02,04,14,53,53.10
2006,02,04,14,54,51.50
2006,02,04,14,55,53.10
2006,02,04,14,56,54.70
2006,02,04,14,57,56.30
2006,02,04,14,58,54.70
2006,02,04,14,59,70.80
2006,02,04,15,00,53.10
2006,02,04,15,01,61.20
2006,02,04,15,02,54.70
2006,02,04,15,03,66.00
2006,02,04,15,04,67.60
2006,02,04,15,05,67.60
2006,02,04,15,06,67.60
2006,02,04,15,07,48.30
2006,02,04,15,08,51.50
2006,02,04,15,09,67.60
2006,02,04,15,10,59.50
2006,02,04,15,11,70.80
2006,02,04,15,12,69.20
2006,02,04,15,13,43.50
2006,02,04,15,14,57.90
2006,02,04,15,15,56.30
2006,02,04,15,16,59.50
2006,02,04,15,17,61.20
2006,02,04,15,18,61.20
2006,02,04,15,19,61.20
2006,02,04,15,20,64.40
2006,02,04,15,21,59.50
2006,02,04,15,22,66.00
2006,02,04,15,23,75.60
2006,02,04,15,24,61.20
2006,02,04,15,25,46.70
2006,02,04,15,26,64.40
2006,02,04,15,27,59.50
2006,02,04,15,28,62.70
2006,02,04,15,29,51.50
2006,02,04,15,30,66.00
2006,02,04,15,31,80.50
2006,02,04,15,32,74.00
2006,02,04,15,33,77.30
2006,02,04,15,34,61.20
2006,02,04,15,35,64.40
2006,02,04,15,36,61.20
2006,02,04,15,37,41.80
2006,02,04,15,38,54.70
2006,02,04,15,39,61.20
2006,02,04,15,40,74.00
2006,02,04,15,41,75.60
2006,02,04,15,42,64.40
2006,02,04,15,43,57.90
2006,02,04,15,44,48.30
2006,02,04,15,45,51.50
2006,02,04,15,46,56.30
2006,02,04,15,47,54.70
2006,02,04,15,48,54.70
2006,02,04,15,49,64.40
2006,02,04,15,50,53.10
2006,02,04,15,51,69.20
2006,02,04,15,52,61.20
2006,02,04,15,53,57.90
2006,02,04,15,54,53.10
2006,02,04,15,55,78.80
2006,02,04,15,56,45.10
2006,02,04,15,57,69.20
2006,02,04,15,58,82.10
2006,02,04,15,59,90.10
2006,02,04,16,00,90.10
2006,02,04,16,01,56.30
2006,02,04,16,02,54.70
2006,02,04,16,03,75.60
2006,02,04,16,04,53.10
2006,02,04,16,05,74.00
2006,02,04,16,06,77.30
2006,02,04,16,07,82.10
2006,02,04,16,08,64.40
2006,02,04,16,09,72.40
2006,02,04,16,10,75.60
2006,02,04,16,11,59.50
2006,02,04,16,12,51.50
2006,02,04,16,13,66.00
2006,02,04,16,14,74.00
2006,02,04,16,15,61.20
2006,02,04,16,16,67.60
2006,02,04,16,17,64.40
2006,02,04,16,18,78.80
2006,02,04,16,19,74.00
2006,02,04,16,20,74.00
2006,02,04,16,21,70.80
2006,02,04,16,22,66.00
2006,02,04,16,23,75.60
2006,02,04,16,24,69.20
2006,02,04,16,25,54.70
2006,02,04,16,26,48.30
2006,02,04,16,27,69.20
2006,02,04,16,28,59.50
2006,02,04,16,29,59.50
2006,02,04,16,30,64.40
2006,02,04,16,31,62.70
2006,02,04,16,32,62.70
2006,02,04,16,33,74.00
2006,02,04,16,34,72.40
2006,02,04,16,35,64.40
2006,02,04,16,36,74.00
2006,02,04,16,37,74.00
2006,02,04,16,38,77.30
2006,02,04,16,39,74.00
2006,02,04,16,40,64.40
2006,02,04,16,41,35.40
2006,02,04,16,42,69.20
2006,02,04,16,43,75.60
2006,02,04,16,44,59.50
2006,02,04,16,45,61.20
2006,02,04,16,46,64.40
2006,02,04,16,47,70.80
2006,02,04,16,48,64.40
2006,02,04,16,49,53.10
2006,02,04,16,50,67.60
2006,02,04,16,51,54.70
2006,02,04,16,52,70.80
2006,02,04,16,53,64.40
2006,02,04,16,54,54.70
2006,02,04,16,55,64.40
2006,02,04,16,56,62.70
2006,02,04,16,57,57.90
2006,02,04,16,58,67.60
2006,02,04,16,59,74.00
2006,02,04,17,00,64.40
2006,02,04,17,01,51.50
2006,02,04,17,02,53.10
2006,02,04,17,03,70.80
2006,02,04,17,04,64.40
2006,02,04,17,05,62.70
2006,02,04,17,06,56.30
2006,02,04,17,07,54.70
2006,02,04,17,08,51.50
2006,02,04,17,09,61.20
2006,02,04,17,10,66.00
2006,02,04,17,11,56.30
2006,02,04,17,12,49.90
2006,02,04,17,13,51.50
2006,02,04,17,14,64.40
2006,02,04,17,15,67.60
2006,02,04,17,16,40.20
2006,02,04,17,17,48.30
2006,02,04,17,18,61.20
2006,02,04,17,19,54.70
2006,02,04,17,20,46.70
2006,02,04,17,21,41.80
2006,02,04,17,22,57.90
2006,02,04,17,23,56.30
2006,02,04,17,24,54.70
2006,02,04,17,25,43.50
2006,02,04,17,26,38.60
2006,02,04,17,27,64.40
2006,02,04,17,28,62.70
2006,02,04,17,29,67.60
2006,02,04,17,30,53.10
2006,02,04,17,31,64.40
2006,02,04,17,32,61.20
2006,02,04,17,33,56.30
2006,02,04,17,34,40.20
2006,02,04,17,35,38.60
2006,02,04,17,36,49.90
2006,02,04,17,37,64.40
2006,02,04,17,38,51.50
2006,02,04,17,39,62.70
2006,02,04,17,40,56.30
2006,02,04,17,41,54.70
2006,02,04,17,42,57.90
2006,02,04,17,43,49.90
2006,02,04,17,44,51.50
2006,02,04,17,45,49.90
2006,02,04,17,46,49.90
2006,02,04,17,47,29.00
2006,02,04,17,48,62.70
2006,02,04,17,49,35.40
2006,02,04,17,50,40.20
2006,02,04,17,51,41.80
2006,02,04,17,52,53.10
2006,02,04,17,53,49.90
2006,02,04,17,54,53.10
2006,02,04,17,55,64.40
2006,02,04,17,56,35.40
2006,02,04,17,57,51.50
2006,02,04,17,58,41.80
2006,02,04,17,59,57.90
2006,02,04,18,00,43.50
2006,02,04,18,01,66.00
2006,02,04,18,02,46.70
2006,02,04,18,03,38.60
2006,02,04,18,04,46.70
2006,02,04,18,05,48.30
2006,02,04,18,06,30.60
2006,02,04,18,07,48.30
2006,02,04,18,08,46.70
2006,02,04,18,09,51.50
2006,02,04,18,10,45.10
2006,02,04,18,11,38.60
2006,02,04,18,12,56.30
2006,02,04,18,13,48.30
2006,02,04,18,14,53.10
2006,02,04,18,15,48.30
2006,02,04,18,16,48.30
2006,02,04,18,17,45.10
2006,02,04,18,18,64.40
2006,02,04,18,19,46.70
2006,02,04,18,20,48.30
2006,02,04,18,21,38.60
2006,02,04,18,22,46.70
2006,02,04,18,23,59.50
2006,02,04,18,24,51.50
2006,02,04,18,25,40.20
2006,02,04,18,26,49.90
2006,02,04,18,27,48.30
2006,02,04,18,28,51.50
2006,02,04,18,29,33.80
2006,02,04,18,30,53.10
2006,02,04,18,31,51.50
2006,02,04,18,32,51.50
2006,02,04,18,33,48.30
2006,02,04,18,34,48.30
2006,02,04,18,35,51.50
2006,02,04,18,36,53.10
2006,02,04,18,37,54.70
2006,02,04,18,38,49.90
2006,02,04,18,39,56.30
2006,02,04,18,40,54.70
2006,02,04,18,41,41.80
2006,02,04,18,42,53.10
2006,02,04,18,43,30.60
2006,02,04,18,44,46.70
2006,02,04,18,45,48.30
2006,02,04,18,46,56.30
2006,02,04,18,47,49.90
2006,02,04,18,48,46.70
2006,02,04,18,49,41.80
2006,02,04,18,50,40.20
2006,02,04,18,51,37.00
2006,02,04,18,52,53.10
2006,02,04,18,53,51.50
2006,02,04,18,54,38.60
2006,02,04,18,55,33.80
2006,02,04,18,56,48.30
2006,02,04,18,57,40.20
2006,02,04,18,58,37.00
2006,02,04,18,59,38.60
2006,02,04,19,00,40.20
2006,02,04,19,01,35.40
2006,02,04,19,02,27.40
2006,02,04,19,03,32.20
2006,02,04,19,04,25.70
2006,02,04,19,05,25.70
2006,02,04,19,06,29.00
2006,02,04,19,07,37.00
2006,02,04,19,08,24.20
2006,02,04,19,09,35.40
2006,02,04,19,10,22.50
2006,02,04,19,11,37.00
2006,02,04,19,12,33.80
2006,02,04,19,13,43.50
2006,02,04,19,14,38.60
2006,02,04,19,15,12.90
2006,02,04,19,16,43.50
2006,02,04,19,17,41.80
2006,02,04,19,18,29.00
2006,02,04,19,19,32.20
2006,02,04,19,20,38.60
2006,02,04,19,21,40.20
2006,02,04,19,22,30.60
2006,02,04,19,23,43.50
2006,02,04,19,24,41.80
2006,02,04,19,25,29.00
2006,02,04,19,26,30.60
2006,02,04,19,27,30.60
2006,02,04,19,28,22.50
2006,02,04,19,29,29.00